When you browse on this site, cookies collect data to enhance your experience and personalize the content and advertising you see.
Visit our Privacy Policy to learn more. By continuing to use the site, you agree to this use of cookies and data.
  • In United Kingdom
  • List of Countries
  • For 7 days
  • Water Temperature
  • Weather Map
  • Weather Widgets
  • user-avatar
    Login

    Hourly Weather Cobija

    Today, 24 January, Friday

    Time Temperature Precipitation Wind Pressure Humidity
    00:00 +24°C° 0 mm 0 mps 736 mmHg 77%
    01:00 +23°C° 0 mm 0 mps 736 mmHg 80%
    02:00 +23°C° 0.3 mm 0 mps 736 mmHg 82%
    03:00 +22°C° 0.3 mm 0 mps 735 mmHg 85%
    04:00 +22°C° 0.3 mm 0 mps 735 mmHg 87%
    05:00 +23°C° 0 mm 0 mps 736 mmHg 86%
    06:00 +23°C° 0 mm 0 mps 737 mmHg 86%
    07:00 +24°C° 0 mm 0 mps 738 mmHg 85%
    08:00 +28°C° 0.5 mm 1 mps 738 mmHg 83%
    09:00 +29°C° 0.5 mm 1 mps 738 mmHg 81%
    10:00 +30°C° 0.5 mm 2 mps 738 mmHg 79%
    11:00 +31°C° 1.6 mm 1 mps 738 mmHg 81%
    12:00 +31°C° 1.6 mm 1 mps 737 mmHg 83%
    13:00 +31°C° 1.6 mm 1 mps 737 mmHg 85%
    14:00 +30°C° 1.1 mm 1 mps 736 mmHg 86%
    15:00 +30°C° 1.1 mm 1 mps 735 mmHg 88%
    16:00 +29°C° 1.1 mm 1 mps 735 mmHg 90%
    17:00 +28°C° 0.6 mm 1 mps 735 mmHg 93%
    18:00 +27°C° 0.6 mm 1 mps 736 mmHg 95%
    19:00 +26°C° 0.6 mm 1 mps 736 mmHg 98%
    20:00 +26°C° 0 mm 1 mps 737 mmHg 98%
    21:00 +23°C° 0 mm 0 mps 737 mmHg 98%
    22:00 +23°C° 0 mm 0 mps 737 mmHg 98%
    23:00 +23°C° 0 mm 0 mps 737 mmHg 98%

    Tomorrow, 25 January, Saturday

    Time Temperature Precipitation Wind Pressure Humidity
    00:00 +23°C° 0 mm 0 mps 737 mmHg 98%
    01:00 +23°C° 0 mm 0 mps 737 mmHg 98%
    02:00 +23°C° 0 mm 0 mps 736 mmHg 98%
    03:00 +23°C° 0 mm 0 mps 736 mmHg 98%
    04:00 +23°C° 0 mm 0 mps 736 mmHg 98%
    05:00 +23°C° 0 mm 0 mps 737 mmHg 97%
    06:00 +23°C° 0 mm 0 mps 737 mmHg 97%
    07:00 +24°C° 0 mm 0 mps 738 mmHg 96%
    08:00 +26°C° 0 mm 0 mps 739 mmHg 85%
    09:00 +30°C° 0 mm 1 mps 739 mmHg 75%
    10:00 +32°C° 0 mm 1 mps 739 mmHg 64%
    11:00 +33°C° 0 mm 1 mps 739 mmHg 57%
    12:00 +35°C° 0 mm 1 mps 738 mmHg 50%
    13:00 +36°C° 0 mm 1 mps 737 mmHg 43%
    14:00 +36°C° 0 mm 1 mps 736 mmHg 46%
    15:00 +35°C° 0 mm 1 mps 735 mmHg 49%
    16:00 +35°C° 0 mm 1 mps 734 mmHg 52%
    17:00 +33°C° 0 mm 1 mps 734 mmHg 59%
    18:00 +29°C° 0 mm 0 mps 735 mmHg 65%
    19:00 +27°C° 0 mm 0 mps 735 mmHg 72%
    20:00 +26°C° 0 mm 0 mps 736 mmHg 74%
    21:00 +26°C° 0 mm 0 mps 736 mmHg 76%
    22:00 +25°C° 0 mm 0 mps 737 mmHg 78%
    23:00 +25°C° 0 mm 0 mps 737 mmHg 79%

    Day after tomorrow, 26 January, Sunday

    Time Temperature Precipitation Wind Pressure Humidity
    00:00 +25°C° 0 mm 0 mps 736 mmHg 81%
    01:00 +24°C° 0 mm 0 mps 736 mmHg 83%
    02:00 +24°C° 0 mm 0 mps 736 mmHg 84%
    03:00 +24°C° 0 mm 0 mps 736 mmHg 86%
    04:00 +23°C° 0 mm 0 mps 736 mmHg 87%
    05:00 +24°C° 0 mm 0 mps 736 mmHg 84%
    06:00 +25°C° 0 mm 0 mps 737 mmHg 81%
    07:00 +26°C° 0 mm 0 mps 737 mmHg 77%
    08:00 +29°C° 0 mm 0 mps 738 mmHg 67%
    09:00 +33°C° 0 mm 1 mps 738 mmHg 56%
    10:00 +36°C° 0 mm 1 mps 738 mmHg 45%
    11:00 +37°C° 0 mm 1 mps 737 mmHg 42%
    12:00 +39°C° 0 mm 1 mps 736 mmHg 39%
    13:00 +39°C° 0 mm 1 mps 736 mmHg 36%
    14:00 +39°C° 0 mm 1 mps 735 mmHg 37%
    15:00 +39°C° 0 mm 1 mps 734 mmHg 38%
    16:00 +39°C° 0 mm 1 mps 733 mmHg 39%
    17:00 +35°C° 0 mm 1 mps 733 mmHg 48%
    18:00 +33°C° 0 mm 1 mps 734 mmHg 56%
    19:00 +31°C° 0 mm 1 mps 734 mmHg 64%
    20:00 +30°C° 0 mm 1 mps 735 mmHg 68%
    21:00 +30°C° 0 mm 1 mps 735 mmHg 72%
    22:00 +29°C° 0 mm 1 mps 735 mmHg 75%
    23:00 +29°C° 0 mm 1 mps 735 mmHg 76%

    27 January, Monday

    Time Temperature Precipitation Wind Pressure Humidity
    00:00 +28°C° 0 mm 1 mps 735 mmHg 76%
    01:00 +28°C° 0 mm 1 mps 735 mmHg 77%
    02:00 +25°C° 0.3 mm 0 mps 735 mmHg 81%
    03:00 +25°C° 0.3 mm 0 mps 735 mmHg 86%
    04:00 +24°C° 0.3 mm 0 mps 735 mmHg 90%
    05:00 +26°C° 0 mm 1 mps 736 mmHg 88%
    06:00 +27°C° 0 mm 1 mps 737 mmHg 87%
    07:00 +28°C° 0 mm 1 mps 737 mmHg 86%
    08:00 +30°C° 0.1 mm 1 mps 738 mmHg 75%
    09:00 +33°C° 0.1 mm 1 mps 738 mmHg 64%
    10:00 +36°C° 0.1 mm 2 mps 738 mmHg 54%
    11:00 +36°C° 0.2 mm 1 mps 737 mmHg 51%
    12:00 +36°C° 0.2 mm 1 mps 736 mmHg 49%
    13:00 +37°C° 0.2 mm 1 mps 736 mmHg 47%
    14:00 +36°C° 0.1 mm 1 mps 735 mmHg 50%
    15:00 +35°C° 0.1 mm 1 mps 734 mmHg 54%
    16:00 +35°C° 0.1 mm 1 mps 733 mmHg 57%
    17:00 +32°C° 0.4 mm 1 mps 733 mmHg 66%
    18:00 +30°C° 0.4 mm 1 mps 733 mmHg 75%
    19:00 +26°C° 0.4 mm 0 mps 734 mmHg 83%
    20:00 +28°C° 0.4 mm 1 mps 734 mmHg 86%
    21:00 +27°C° 0.4 mm 1 mps 735 mmHg 88%
    22:00 +27°C° 0.4 mm 1 mps 735 mmHg 90%
    23:00 +27°C° 0.4 mm 1 mps 735 mmHg 91%

    28 January, Tuesday

    Time Temperature Precipitation Wind Pressure Humidity
    00:00 +26°C° 0.4 mm 1 mps 735 mmHg 93%
    01:00 +26°C° 0.4 mm 1 mps 735 mmHg 94%
    02:00 +26°C° 0 mm 1 mps 735 mmHg 95%
    03:00 +26°C° 0 mm 1 mps 735 mmHg 95%
    04:00 +26°C° 0 mm 1 mps 735 mmHg 96%
    05:00 +26°C° 0.3 mm 1 mps 736 mmHg 95%
    06:00 +26°C° 0.3 mm 1 mps 736 mmHg 94%
    07:00 +27°C° 0.3 mm 1 mps 737 mmHg 93%
    08:00 +28°C° 1 mm 1 mps 737 mmHg 87%
    09:00 +30°C° 1 mm 2 mps 737 mmHg 82%
    10:00 +31°C° 1 mm 2 mps 738 mmHg 77%
    11:00 +31°C° 2.1 mm 2 mps 737 mmHg 81%
    12:00 +31°C° 2.1 mm 2 mps 736 mmHg 85%
    13:00 +30°C° 2.1 mm 2 mps 736 mmHg 90%
    14:00 +30°C° 1.9 mm 1 mps 735 mmHg 91%
    15:00 +29°C° 1.9 mm 1 mps 735 mmHg 93%
    16:00 +29°C° 1.9 mm 1 mps 734 mmHg 94%
    17:00 +28°C° 0.2 mm 1 mps 734 mmHg 95%
    18:00 +27°C° 0.2 mm 1 mps 734 mmHg 96%
    19:00 +24°C° 0.2 mm 0 mps 734 mmHg 97%
    20:00 +24°C° 0 mm 0 mps 735 mmHg 97%
    21:00 +24°C° 0 mm 0 mps 735 mmHg 96%
    22:00 +26°C° 0 mm 1 mps 736 mmHg 96%
    23:00 +25°C° 0 mm 1 mps 735 mmHg 97%

    29 January, Wednesday

    Time Temperature Precipitation Wind Pressure Humidity
    00:00 +25°C° 0 mm 1 mps 735 mmHg 97%
    01:00 +25°C° 0 mm 1 mps 735 mmHg 98%
    02:00 +23°C° 0 mm 0 mps 735 mmHg 97%
    03:00 +23°C° 0 mm 0 mps 735 mmHg 97%
    04:00 +22°C° 0 mm 0 mps 735 mmHg 97%
    05:00 +23°C° 0 mm 0 mps 735 mmHg 95%
    06:00 +23°C° 0 mm 0 mps 736 mmHg 93%
    07:00 +24°C° 0 mm 0 mps 736 mmHg 90%
    08:00 +27°C° 0 mm 1 mps 736 mmHg 82%
    09:00 +29°C° 0 mm 1 mps 737 mmHg 74%
    10:00 +31°C° 0 mm 1 mps 737 mmHg 65%
    11:00 +33°C° 0 mm 1 mps 736 mmHg 58%
    12:00 +35°C° 0 mm 2 mps 735 mmHg 51%
    13:00 +37°C° 0 mm 2 mps 734 mmHg 45%
    14:00 +36°C° 0.6 mm 2 mps 734 mmHg 54%
    15:00 +34°C° 0.6 mm 2 mps 733 mmHg 63%
    16:00 +31°C° 0.6 mm 2 mps 733 mmHg 72%
    17:00 +29°C° 2.1 mm 2 mps 733 mmHg 80%
    18:00 +27°C° 2.1 mm 2 mps 734 mmHg 88%
    19:00 +26°C° 2.1 mm 1 mps 734 mmHg 96%
    20:00 +26°C° 2.2 mm 1 mps 735 mmHg 96%
    21:00 +25°C° 2.2 mm 1 mps 736 mmHg 97%
    22:00 +25°C° 2.2 mm 2 mps 736 mmHg 97%
    23:00 +25°C° 0 mm 1 mps 736 mmHg 98%
    Show more